Location: Cardiff
(53.7833°N, 113.6000°W)
Time: 07:42:40
(UTC+00:00)

RS-15 - Pass Details

Date: 06 December 2023
Orbit: 1893 x 2151 km, 64.8° (Epoch: 21 February)

Event Time Altitude Azimuth Distance (km) Brightness Sun altitude
Exits shadow 10:35:26 60° 353° (N) 2,217 8.1 -42.6°
Maximum altitude 10:37:08 66° 31° (NNE) 2,126 8.1 -42.4°
Drops below altitude 10° 10:48:11 10° 114° (ESE) 4,318 10.2 -40.9°
Sets 10:51:27 0° 117° (ESE) 5,295 10.8 -40.4°
